Year,Month,Day,Hour,Minute,Value (Times are PST for temperature in C)
2020,05,05,00,00,8.50
2020,05,05,00,01,8.50
2020,05,05,00,02,8.50
2020,05,05,00,03,8.40
2020,05,05,00,04,8.40
2020,05,05,00,05,8.40
2020,05,05,00,06,8.40
2020,05,05,00,07,8.40
2020,05,05,00,08,8.30
2020,05,05,00,09,8.30
2020,05,05,00,10,8.30
2020,05,05,00,11,8.20
2020,05,05,00,12,8.20
2020,05,05,00,13,8.20
2020,05,05,00,14,8.10
2020,05,05,00,15,8.10
2020,05,05,00,16,8.10
2020,05,05,00,17,8.10
2020,05,05,00,18,8.10
2020,05,05,00,19,8.10
2020,05,05,00,20,8.10
2020,05,05,00,21,8.10
2020,05,05,00,22,8.10
2020,05,05,00,23,8.10
2020,05,05,00,24,8.10
2020,05,05,00,25,8.10
2020,05,05,00,26,8.10
2020,05,05,00,27,8.10
2020,05,05,00,28,8.10
2020,05,05,00,29,8.10
2020,05,05,00,30,8.00
2020,05,05,00,31,8.00
2020,05,05,00,32,8.00
2020,05,05,00,33,8.00
2020,05,05,00,34,7.90
2020,05,05,00,35,7.90
2020,05,05,00,36,7.90
2020,05,05,00,37,7.90
2020,05,05,00,38,7.80
2020,05,05,00,39,7.80
2020,05,05,00,40,7.70
2020,05,05,00,41,7.70
2020,05,05,00,42,7.70
2020,05,05,00,43,7.60
2020,05,05,00,44,7.60
2020,05,05,00,45,7.60
2020,05,05,00,46,7.50
2020,05,05,00,47,7.50
2020,05,05,00,48,7.40
2020,05,05,00,49,7.40
2020,05,05,00,50,7.40
2020,05,05,00,51,7.40
2020,05,05,00,52,7.40
2020,05,05,00,53,7.30
2020,05,05,00,54,7.30
2020,05,05,00,55,7.30
2020,05,05,00,56,7.30
2020,05,05,00,57,7.30
2020,05,05,00,58,7.20
2020,05,05,00,59,7.20
2020,05,05,01,00,7.20
2020,05,05,01,01,7.20
2020,05,05,01,02,7.20
2020,05,05,01,03,7.10
2020,05,05,01,04,7.10
2020,05,05,01,05,7.00
2020,05,05,01,06,7.00
2020,05,05,01,07,6.90
2020,05,05,01,08,6.90
2020,05,05,01,09,6.80
2020,05,05,01,10,6.80
2020,05,05,01,11,6.80
2020,05,05,01,12,6.80
2020,05,05,01,13,6.70
2020,05,05,01,14,6.70
2020,05,05,01,15,6.70
2020,05,05,01,16,6.60
2020,05,05,01,17,6.60
2020,05,05,01,18,6.60
2020,05,05,01,19,6.50
2020,05,05,01,20,6.50
2020,05,05,01,21,6.50
2020,05,05,01,22,6.40
2020,05,05,01,23,6.40
2020,05,05,01,24,6.40
2020,05,05,01,25,6.30
2020,05,05,01,26,6.30
2020,05,05,01,27,6.30
2020,05,05,01,28,6.30
2020,05,05,01,29,6.30
2020,05,05,01,30,6.30
2020,05,05,01,31,6.30
2020,05,05,01,32,6.30
2020,05,05,01,33,6.30
2020,05,05,01,34,6.30
2020,05,05,01,35,6.30
2020,05,05,01,36,6.30
2020,05,05,01,37,6.20
2020,05,05,01,38,6.20
2020,05,05,01,39,6.20
2020,05,05,01,40,6.20
2020,05,05,01,41,6.10
2020,05,05,01,42,6.10
2020,05,05,01,43,6.10
2020,05,05,01,44,6.10
2020,05,05,01,45,6.10
2020,05,05,01,46,6.10
2020,05,05,01,47,6.00
2020,05,05,01,48,6.00
2020,05,05,01,49,6.00
2020,05,05,01,50,6.00
2020,05,05,01,51,5.90
2020,05,05,01,52,5.90
2020,05,05,01,53,5.90
2020,05,05,01,54,5.90
2020,05,05,01,55,5.90
2020,05,05,01,56,5.80
2020,05,05,01,57,5.80
2020,05,05,01,58,5.70
2020,05,05,01,59,5.70
2020,05,05,02,00,5.60
2020,05,05,02,01,5.60
2020,05,05,02,02,5.50
2020,05,05,02,03,5.50
2020,05,05,02,04,5.50
2020,05,05,02,05,5.50
2020,05,05,02,06,5.50
2020,05,05,02,07,5.50
2020,05,05,02,08,5.40
2020,05,05,02,09,5.40
2020,05,05,02,10,5.40
2020,05,05,02,11,5.40
2020,05,05,02,12,5.40
2020,05,05,02,13,5.40
2020,05,05,02,14,5.40
2020,05,05,02,15,5.40
2020,05,05,02,16,5.40
2020,05,05,02,17,5.40
2020,05,05,02,18,5.40
2020,05,05,02,19,5.40
2020,05,05,02,20,5.40
2020,05,05,02,21,5.40
2020,05,05,02,22,5.30
2020,05,05,02,23,5.30
2020,05,05,02,24,5.30
2020,05,05,02,25,5.30
2020,05,05,02,26,5.40
2020,05,05,02,27,5.40
2020,05,05,02,28,5.40
2020,05,05,02,29,5.30
2020,05,05,02,30,5.30
2020,05,05,02,31,5.30
2020,05,05,02,32,5.30
2020,05,05,02,33,5.30
2020,05,05,02,34,5.30
2020,05,05,02,35,5.30
2020,05,05,02,36,5.30
2020,05,05,02,37,5.30
2020,05,05,02,38,5.30
2020,05,05,02,39,5.30
2020,05,05,02,40,5.20
2020,05,05,02,41,5.20
2020,05,05,02,42,5.20
2020,05,05,02,43,5.20
2020,05,05,02,44,5.10
2020,05,05,02,45,5.10
2020,05,05,02,46,5.10
2020,05,05,02,47,5.00
2020,05,05,02,48,5.00
2020,05,05,02,49,5.00
2020,05,05,02,50,5.00
2020,05,05,02,51,5.00
2020,05,05,02,52,5.00
2020,05,05,02,53,4.90
2020,05,05,02,54,4.90
2020,05,05,02,55,4.90
2020,05,05,02,56,4.90
2020,05,05,02,57,4.90
2020,05,05,02,58,4.90
2020,05,05,02,59,4.90
2020,05,05,03,00,4.90
2020,05,05,03,01,4.90
2020,05,05,03,02,4.90
2020,05,05,03,03,4.90
2020,05,05,03,04,4.80
2020,05,05,03,05,4.80
2020,05,05,03,06,4.80
2020,05,05,03,07,4.80
2020,05,05,03,08,4.80
2020,05,05,03,09,4.80
2020,05,05,03,10,4.80
2020,05,05,03,11,4.80
2020,05,05,03,12,4.80
2020,05,05,03,13,4.80
2020,05,05,03,14,4.80
2020,05,05,03,15,4.70
2020,05,05,03,16,4.70
2020,05,05,03,17,4.70
2020,05,05,03,18,4.70
2020,05,05,03,19,4.70
2020,05,05,03,20,4.70
2020,05,05,03,21,4.60
2020,05,05,03,22,4.60
2020,05,05,03,23,4.60
2020,05,05,03,24,4.60
2020,05,05,03,25,4.60
2020,05,05,03,26,4.60
2020,05,05,03,27,4.60
2020,05,05,03,28,4.50
2020,05,05,03,29,4.50
2020,05,05,03,30,4.50
2020,05,05,03,31,4.50
2020,05,05,03,32,4.40
2020,05,05,03,33,4.40
2020,05,05,03,34,4.40
2020,05,05,03,35,4.40
2020,05,05,03,36,4.40
2020,05,05,03,37,4.40
2020,05,05,03,38,4.40
2020,05,05,03,39,4.40
2020,05,05,03,40,4.40
2020,05,05,03,41,4.40
2020,05,05,03,42,4.30
2020,05,05,03,43,4.30
2020,05,05,03,44,4.30
2020,05,05,03,45,4.30
2020,05,05,03,46,4.30
2020,05,05,03,47,4.30
2020,05,05,03,48,4.20
2020,05,05,03,49,4.20
2020,05,05,03,50,4.20
2020,05,05,03,51,4.20
2020,05,05,03,52,4.10
2020,05,05,03,53,4.00
2020,05,05,03,54,4.00
2020,05,05,03,55,4.00
2020,05,05,03,56,4.00
2020,05,05,03,57,4.00
2020,05,05,03,58,4.00
2020,05,05,03,59,3.90
2020,05,05,04,00,3.90
2020,05,05,04,01,3.90
2020,05,05,04,02,3.90
2020,05,05,04,03,3.90
2020,05,05,04,04,3.90
2020,05,05,04,05,4.00
2020,05,05,04,06,4.00
2020,05,05,04,07,4.00
2020,05,05,04,08,4.00
2020,05,05,04,09,4.00
2020,05,05,04,10,4.10
2020,05,05,04,11,4.10
2020,05,05,04,12,4.20
2020,05,05,04,13,4.20
2020,05,05,04,14,4.20
2020,05,05,04,15,4.20
2020,05,05,04,16,4.20
2020,05,05,04,17,4.20
2020,05,05,04,18,4.20
2020,05,05,04,19,4.20
2020,05,05,04,20,4.10
2020,05,05,04,21,4.10
2020,05,05,04,22,4.00
2020,05,05,04,23,3.90
2020,05,05,04,24,3.90
2020,05,05,04,25,3.90
2020,05,05,04,26,3.80
2020,05,05,04,27,3.80
2020,05,05,04,28,3.80
2020,05,05,04,29,3.80
2020,05,05,04,30,3.80
2020,05,05,04,31,3.80
2020,05,05,04,32,3.80
2020,05,05,04,33,3.80
2020,05,05,04,34,3.80
2020,05,05,04,35,3.70
2020,05,05,04,36,3.70
2020,05,05,04,37,3.70
2020,05,05,04,38,3.70
2020,05,05,04,39,3.70
2020,05,05,04,40,3.70
2020,05,05,04,41,3.70
2020,05,05,04,42,3.70
2020,05,05,04,43,3.70
2020,05,05,04,44,3.70
2020,05,05,04,45,3.80
2020,05,05,04,46,3.80
2020,05,05,04,47,3.90
2020,05,05,04,48,3.90
2020,05,05,04,49,3.90
2020,05,05,04,50,4.00
2020,05,05,04,51,4.00
2020,05,05,04,52,3.90
2020,05,05,04,53,3.90
2020,05,05,04,54,3.90
2020,05,05,04,55,3.90
2020,05,05,04,56,3.90
2020,05,05,04,57,3.90
2020,05,05,04,58,3.90
2020,05,05,04,59,3.90
2020,05,05,05,00,3.90
2020,05,05,05,01,3.90
2020,05,05,05,02,3.90
2020,05,05,05,03,3.90
2020,05,05,05,04,3.80
2020,05,05,05,05,3.80
2020,05,05,05,06,3.80
2020,05,05,05,07,3.80
2020,05,05,05,08,3.80
2020,05,05,05,09,3.80
2020,05,05,05,10,3.90
2020,05,05,05,11,3.80
2020,05,05,05,12,3.80
2020,05,05,05,13,3.80
2020,05,05,05,14,3.80
2020,05,05,05,15,3.80
2020,05,05,05,16,3.80
2020,05,05,05,17,3.80
2020,05,05,05,18,3.80
2020,05,05,05,19,3.80
2020,05,05,05,20,3.80
2020,05,05,05,21,3.70
2020,05,05,05,22,3.70
2020,05,05,05,23,3.70
2020,05,05,05,24,3.70
2020,05,05,05,25,3.70
2020,05,05,05,26,3.70
2020,05,05,05,27,3.70
2020,05,05,05,28,3.70
2020,05,05,05,29,3.70
2020,05,05,05,30,3.70
2020,05,05,05,31,3.70
2020,05,05,05,32,3.80
2020,05,05,05,33,3.80
2020,05,05,05,34,3.80
2020,05,05,05,35,3.70
2020,05,05,05,36,3.70
2020,05,05,05,37,3.70
2020,05,05,05,38,3.60
2020,05,05,05,39,3.60
2020,05,05,05,40,3.60
2020,05,05,05,41,3.50
2020,05,05,05,42,3.50
2020,05,05,05,43,3.40
2020,05,05,05,44,3.40
2020,05,05,05,45,3.40
2020,05,05,05,46,3.30
2020,05,05,05,47,3.30
2020,05,05,05,48,3.30
2020,05,05,05,49,3.30
2020,05,05,05,50,3.30
2020,05,05,05,51,3.30
2020,05,05,05,52,3.30
2020,05,05,05,53,3.30
2020,05,05,05,54,3.30
2020,05,05,05,55,3.30
2020,05,05,05,56,3.30
2020,05,05,05,57,3.30
2020,05,05,05,58,3.20
2020,05,05,05,59,3.20
2020,05,05,06,00,3.20
2020,05,05,06,01,3.20
2020,05,05,06,02,3.20
2020,05,05,06,03,3.20
2020,05,05,06,04,3.20
2020,05,05,06,05,3.30
2020,05,05,06,06,3.30
2020,05,05,06,07,3.30
2020,05,05,06,08,3.30
2020,05,05,06,09,3.30
2020,05,05,06,10,3.30
2020,05,05,06,11,3.30
2020,05,05,06,12,3.30
2020,05,05,06,13,3.30
2020,05,05,06,14,3.30
2020,05,05,06,15,3.30
2020,05,05,06,16,3.30
2020,05,05,06,17,3.30
2020,05,05,06,18,3.30
2020,05,05,06,19,3.20
2020,05,05,06,20,3.20
2020,05,05,06,21,3.20
2020,05,05,06,22,3.30
2020,05,05,06,23,3.30
2020,05,05,06,24,3.30
2020,05,05,06,25,3.30
2020,05,05,06,26,3.30
2020,05,05,06,27,3.30
2020,05,05,06,28,3.30
2020,05,05,06,29,3.30
2020,05,05,06,30,3.30
2020,05,05,06,31,3.30
2020,05,05,06,32,3.30
2020,05,05,06,33,3.30
2020,05,05,06,34,3.30
2020,05,05,06,35,3.40
2020,05,05,06,36,3.40
2020,05,05,06,37,3.40
2020,05,05,06,38,3.40
2020,05,05,06,39,3.50
2020,05,05,06,40,3.50
2020,05,05,06,41,3.60
2020,05,05,06,42,3.60
2020,05,05,06,43,3.60
2020,05,05,06,44,3.70
2020,05,05,06,45,3.70
2020,05,05,06,46,3.70
2020,05,05,06,47,3.70
2020,05,05,06,48,3.70
2020,05,05,06,49,3.70
2020,05,05,06,50,3.70
2020,05,05,06,51,3.80
2020,05,05,06,52,3.80
2020,05,05,06,53,3.80
2020,05,05,06,54,3.80
2020,05,05,06,55,3.80
2020,05,05,06,56,3.80
2020,05,05,06,57,3.80
2020,05,05,06,58,3.90
2020,05,05,06,59,3.90
2020,05,05,07,00,4.00
2020,05,05,07,01,4.00
2020,05,05,07,02,4.10
2020,05,05,07,03,4.10
2020,05,05,07,04,4.20
2020,05,05,07,05,4.20
2020,05,05,07,06,4.30
2020,05,05,07,07,4.30
2020,05,05,07,08,4.40
2020,05,05,07,09,4.40
2020,05,05,07,10,4.50
2020,05,05,07,11,4.60
2020,05,05,07,12,4.60
2020,05,05,07,13,4.70
2020,05,05,07,14,4.80
2020,05,05,07,15,4.90
2020,05,05,07,16,5.00
2020,05,05,07,17,5.10
2020,05,05,07,18,5.10
2020,05,05,07,19,5.20
2020,05,05,07,20,5.30
2020,05,05,07,21,5.30
2020,05,05,07,22,5.30
2020,05,05,07,23,5.30
2020,05,05,07,24,5.30
2020,05,05,07,25,5.40
2020,05,05,07,26,5.50
2020,05,05,07,27,5.50
2020,05,05,07,28,5.60
2020,05,05,07,29,5.60
2020,05,05,07,30,5.60
2020,05,05,07,31,5.70
2020,05,05,07,32,5.70
2020,05,05,07,33,5.70
2020,05,05,07,34,5.80
2020,05,05,07,35,5.80
2020,05,05,07,36,5.80
2020,05,05,07,37,5.80
2020,05,05,07,38,5.80
2020,05,05,07,39,5.90
2020,05,05,07,40,5.90
2020,05,05,07,41,5.90
2020,05,05,07,42,5.90
2020,05,05,07,43,5.90
2020,05,05,07,44,6.00
2020,05,05,07,45,6.00
2020,05,05,07,46,6.10
2020,05,05,07,47,6.10
2020,05,05,07,48,6.20
2020,05,05,07,49,6.20
2020,05,05,07,50,6.30
2020,05,05,07,51,6.40
2020,05,05,07,52,6.50
2020,05,05,07,53,6.60
2020,05,05,07,54,6.70
2020,05,05,07,55,6.90
2020,05,05,07,56,7.00
2020,05,05,07,57,7.10
2020,05,05,07,58,7.20
2020,05,05,07,59,7.30
2020,05,05,08,00,7.30
2020,05,05,08,01,7.40
2020,05,05,08,02,7.50
2020,05,05,08,03,7.50
2020,05,05,08,04,7.60
2020,05,05,08,05,7.70
2020,05,05,08,06,7.80
2020,05,05,08,07,7.80
2020,05,05,08,08,7.90
2020,05,05,08,09,7.90
2020,05,05,08,10,7.90
2020,05,05,08,11,8.00
2020,05,05,08,12,8.00
2020,05,05,08,13,8.10
2020,05,05,08,14,8.10
2020,05,05,08,15,8.20
2020,05,05,08,16,8.30
2020,05,05,08,17,8.20
2020,05,05,08,18,8.20
2020,05,05,08,19,8.20
2020,05,05,08,20,8.30
2020,05,05,08,21,8.30
2020,05,05,08,22,8.30
2020,05,05,08,23,8.30
2020,05,05,08,24,8.40
2020,05,05,08,25,8.40
2020,05,05,08,26,8.50
2020,05,05,08,27,8.50
2020,05,05,08,28,8.60
2020,05,05,08,29,8.60
2020,05,05,08,30,8.70
2020,05,05,08,31,8.70
2020,05,05,08,32,8.80
2020,05,05,08,33,8.80
2020,05,05,08,34,8.90
2020,05,05,08,35,8.90
2020,05,05,08,36,9.00
2020,05,05,08,37,9.00
2020,05,05,08,38,9.10
2020,05,05,08,39,9.20
2020,05,05,08,40,9.20
2020,05,05,08,41,9.30
2020,05,05,08,42,9.40
2020,05,05,08,43,9.40
2020,05,05,08,44,9.50
2020,05,05,08,45,9.60
2020,05,05,08,46,9.70
2020,05,05,08,47,9.70
2020,05,05,08,48,9.70
2020,05,05,08,49,9.80
2020,05,05,08,50,9.80
2020,05,05,08,51,9.80
2020,05,05,08,52,9.90
2020,05,05,08,53,9.90
2020,05,05,08,54,10.00
2020,05,05,08,55,10.00
2020,05,05,08,56,10.10
2020,05,05,08,57,10.20
2020,05,05,08,58,10.30
2020,05,05,08,59,10.30
2020,05,05,09,00,10.50
2020,05,05,09,01,10.60
2020,05,05,09,02,10.60
2020,05,05,09,03,10.70
2020,05,05,09,04,10.80
2020,05,05,09,05,10.90
2020,05,05,09,06,10.90
2020,05,05,09,07,11.00
2020,05,05,09,08,11.10
2020,05,05,09,09,11.10
2020,05,05,09,10,11.20
2020,05,05,09,11,11.20
2020,05,05,09,12,11.20
2020,05,05,09,13,11.30
2020,05,05,09,14,11.40
2020,05,05,09,15,11.40
2020,05,05,09,16,11.50
2020,05,05,09,17,11.60
2020,05,05,09,18,11.60
2020,05,05,09,19,11.70
2020,05,05,09,20,11.60
2020,05,05,09,21,11.50
2020,05,05,09,22,11.50
2020,05,05,09,23,11.40
2020,05,05,09,24,11.40
2020,05,05,09,25,11.30
2020,05,05,09,26,11.30
2020,05,05,09,27,11.20
2020,05,05,09,28,11.20
2020,05,05,09,29,11.20
2020,05,05,09,30,11.20
2020,05,05,09,31,11.20
2020,05,05,09,32,11.20
2020,05,05,09,33,11.20
2020,05,05,09,34,11.20
2020,05,05,09,35,11.20
2020,05,05,09,36,11.30
2020,05,05,09,37,11.30
2020,05,05,09,38,11.30
2020,05,05,09,39,11.40
2020,05,05,09,40,11.40
2020,05,05,09,41,11.40
2020,05,05,09,42,11.40
2020,05,05,09,43,11.40
2020,05,05,09,44,11.40
2020,05,05,09,45,11.30
2020,05,05,09,46,11.30
2020,05,05,09,47,11.30
2020,05,05,09,48,11.30
2020,05,05,09,49,11.30
2020,05,05,09,50,11.40
2020,05,05,09,51,11.40
2020,05,05,09,52,11.50
2020,05,05,09,53,11.50
2020,05,05,09,54,11.50
2020,05,05,09,55,11.40
2020,05,05,09,56,11.30
2020,05,05,09,57,11.30
2020,05,05,09,58,11.40
2020,05,05,09,59,11.40
2020,05,05,10,00,11.40
2020,05,05,10,01,11.40
2020,05,05,10,02,11.50
2020,05,05,10,03,11.60
2020,05,05,10,04,11.60
2020,05,05,10,05,11.60
2020,05,05,10,06,11.60
2020,05,05,10,07,11.60
2020,05,05,10,08,11.60
2020,05,05,10,09,11.70
2020,05,05,10,10,11.70
2020,05,05,10,11,11.80
2020,05,05,10,12,11.80
2020,05,05,10,13,11.90
2020,05,05,10,14,11.90
2020,05,05,10,15,12.00
2020,05,05,10,16,11.90
2020,05,05,10,17,11.90
2020,05,05,10,18,11.90
2020,05,05,10,19,11.90
2020,05,05,10,20,11.80
2020,05,05,10,21,11.70
2020,05,05,10,22,11.60
2020,05,05,10,23,11.60
2020,05,05,10,24,11.60
2020,05,05,10,25,11.60
2020,05,05,10,26,11.70
2020,05,05,10,27,11.70
2020,05,05,10,28,11.70
2020,05,05,10,29,11.70
2020,05,05,10,30,11.70
2020,05,05,10,31,11.70
2020,05,05,10,32,11.70
2020,05,05,10,33,11.70
2020,05,05,10,34,11.80
2020,05,05,10,35,11.70
2020,05,05,10,36,11.80
2020,05,05,10,37,11.80
2020,05,05,10,38,11.90
2020,05,05,10,39,11.90
2020,05,05,10,40,11.90
2020,05,05,10,41,12.00
2020,05,05,10,42,12.00
2020,05,05,10,43,11.90
2020,05,05,10,44,11.90
2020,05,05,10,45,12.00
2020,05,05,10,46,12.10
2020,05,05,10,47,12.10
2020,05,05,10,48,12.10
2020,05,05,10,49,12.10
2020,05,05,10,50,12.00
2020,05,05,10,51,12.00
2020,05,05,10,52,11.90
2020,05,05,10,53,11.90
2020,05,05,10,54,11.90
2020,05,05,10,55,11.90
2020,05,05,10,56,11.90
2020,05,05,10,57,11.90
2020,05,05,10,58,11.90
2020,05,05,10,59,11.90
2020,05,05,11,00,12.00
2020,05,05,11,01,12.00
2020,05,05,11,02,12.00
2020,05,05,11,03,12.00
2020,05,05,11,04,12.00
2020,05,05,11,05,11.90
2020,05,05,11,06,11.90
2020,05,05,11,07,11.80
2020,05,05,11,08,11.70
2020,05,05,11,09,11.70
2020,05,05,11,10,11.70
2020,05,05,11,11,11.70
2020,05,05,11,12,11.70
2020,05,05,11,13,11.70
2020,05,05,11,14,11.70
2020,05,05,11,15,11.70
2020,05,05,11,16,11.80
2020,05,05,11,17,11.80
2020,05,05,11,18,11.80
2020,05,05,11,19,11.80
2020,05,05,11,20,11.90
2020,05,05,11,21,11.90
2020,05,05,11,22,12.00
2020,05,05,11,23,12.10
2020,05,05,11,24,12.10
2020,05,05,11,25,12.20
2020,05,05,11,26,12.20
2020,05,05,11,27,12.20
2020,05,05,11,28,12.30
2020,05,05,11,29,12.40
2020,05,05,11,30,12.40
2020,05,05,11,31,12.50
2020,05,05,11,32,12.50
2020,05,05,11,33,12.50
2020,05,05,11,34,12.60
2020,05,05,11,35,12.60
2020,05,05,11,36,12.70
2020,05,05,11,37,12.80
2020,05,05,11,38,12.80
2020,05,05,11,39,12.80
2020,05,05,11,40,12.80
2020,05,05,11,41,12.70
2020,05,05,11,42,12.70
2020,05,05,11,43,12.70
2020,05,05,11,44,12.60
2020,05,05,11,45,12.60
2020,05,05,11,46,12.60
2020,05,05,11,47,12.60
2020,05,05,11,48,12.60
2020,05,05,11,49,12.70
2020,05,05,11,50,12.70
2020,05,05,11,51,12.80
2020,05,05,11,52,12.80
2020,05,05,11,53,12.80
2020,05,05,11,54,12.70
2020,05,05,11,55,12.60
2020,05,05,11,56,12.60
2020,05,05,11,57,12.50
2020,05,05,11,58,12.50
2020,05,05,11,59,12.60
2020,05,05,12,00,12.60
2020,05,05,12,01,12.70
2020,05,05,12,02,12.60
2020,05,05,12,03,12.60
2020,05,05,12,04,12.60
2020,05,05,12,05,12.60
2020,05,05,12,06,12.60
2020,05,05,12,07,12.60
2020,05,05,12,08,12.60
2020,05,05,12,09,12.60
2020,05,05,12,10,12.50
2020,05,05,12,11,12.50
2020,05,05,12,12,12.60
2020,05,05,12,13,12.60
2020,05,05,12,14,12.70
2020,05,05,12,15,12.80
2020,05,05,12,16,12.80
2020,05,05,12,17,12.80
2020,05,05,12,18,12.80
2020,05,05,12,19,12.90
2020,05,05,12,20,12.90
2020,05,05,12,21,12.90
2020,05,05,12,22,12.90
2020,05,05,12,23,12.90
2020,05,05,12,24,12.90
2020,05,05,12,25,12.80
2020,05,05,12,26,12.80
2020,05,05,12,27,12.80
2020,05,05,12,28,12.90
2020,05,05,12,29,12.90
2020,05,05,12,30,12.90
2020,05,05,12,31,13.00
2020,05,05,12,32,13.00
2020,05,05,12,33,13.00
2020,05,05,12,34,12.90
2020,05,05,12,35,12.90
2020,05,05,12,36,12.90
2020,05,05,12,37,13.00
2020,05,05,12,38,13.00
2020,05,05,12,39,13.00
2020,05,05,12,40,13.10
2020,05,05,12,41,13.10
2020,05,05,12,42,13.20
2020,05,05,12,43,13.20
2020,05,05,12,44,13.30
2020,05,05,12,45,13.30
2020,05,05,12,46,13.20
2020,05,05,12,47,13.20
2020,05,05,12,48,13.20
2020,05,05,12,49,13.20
2020,05,05,12,50,13.20
2020,05,05,12,51,13.30
2020,05,05,12,52,13.30
2020,05,05,12,53,13.30
2020,05,05,12,54,13.30
2020,05,05,12,55,13.20
2020,05,05,12,56,13.30
2020,05,05,12,57,13.30
2020,05,05,12,58,13.40
2020,05,05,12,59,13.40
2020,05,05,13,00,13.50
2020,05,05,13,01,13.60
2020,05,05,13,02,13.70
2020,05,05,13,03,13.70
2020,05,05,13,04,13.80
2020,05,05,13,05,13.80
2020,05,05,13,06,13.90
2020,05,05,13,07,13.90
2020,05,05,13,08,13.90
2020,05,05,13,09,14.00
2020,05,05,13,10,14.00
2020,05,05,13,11,14.00
2020,05,05,13,12,14.00
2020,05,05,13,13,14.00
2020,05,05,13,14,14.00
2020,05,05,13,15,13.90
2020,05,05,13,16,13.90
2020,05,05,13,17,13.90
2020,05,05,13,18,13.80
2020,05,05,13,19,13.90
2020,05,05,13,20,13.90
2020,05,05,13,21,13.90
2020,05,05,13,22,13.90
2020,05,05,13,23,14.00
2020,05,05,13,24,14.00
2020,05,05,13,25,14.10
2020,05,05,13,26,14.10
2020,05,05,13,27,14.10
2020,05,05,13,28,14.10
2020,05,05,13,29,14.10
2020,05,05,13,30,14.10
2020,05,05,13,31,14.10
2020,05,05,13,32,14.10
2020,05,05,13,33,14.10
2020,05,05,13,34,14.10
2020,05,05,13,35,14.10
2020,05,05,13,36,14.20
2020,05,05,13,37,14.30
2020,05,05,13,38,14.40
2020,05,05,13,39,14.50
2020,05,05,13,40,14.50
2020,05,05,13,41,14.50
2020,05,05,13,42,14.60
2020,05,05,13,43,14.60
2020,05,05,13,44,14.70
2020,05,05,13,45,14.70
2020,05,05,13,46,14.80
2020,05,05,13,47,14.80
2020,05,05,13,48,14.90
2020,05,05,13,49,14.90
2020,05,05,13,50,14.90
2020,05,05,13,51,15.00
2020,05,05,13,52,15.00
2020,05,05,13,53,14.90
2020,05,05,13,54,14.90
2020,05,05,13,55,14.70
2020,05,05,13,56,14.60
2020,05,05,13,57,14.40
2020,05,05,13,58,14.30
2020,05,05,13,59,14.30
2020,05,05,14,00,14.20
2020,05,05,14,01,14.20
2020,05,05,14,02,14.10
2020,05,05,14,03,14.00
2020,05,05,14,04,13.90
2020,05,05,14,05,13.80
2020,05,05,14,06,13.80
2020,05,05,14,07,13.80
2020,05,05,14,08,13.80
2020,05,05,14,09,13.80
2020,05,05,14,10,13.80
2020,05,05,14,11,13.80
2020,05,05,14,12,13.80
2020,05,05,14,13,13.80
2020,05,05,14,14,13.80
2020,05,05,14,15,13.80
2020,05,05,14,16,13.80
2020,05,05,14,17,13.70
2020,05,05,14,18,13.70
2020,05,05,14,19,13.70
2020,05,05,14,20,13.80
2020,05,05,14,21,13.90
2020,05,05,14,22,13.90
2020,05,05,14,23,13.90
2020,05,05,14,24,13.90
2020,05,05,14,25,13.80
2020,05,05,14,26,13.70
2020,05,05,14,27,13.70
2020,05,05,14,28,13.70
2020,05,05,14,29,13.80
2020,05,05,14,30,13.80
2020,05,05,14,31,13.90
2020,05,05,14,32,13.80
2020,05,05,14,33,13.80
2020,05,05,14,34,13.80
2020,05,05,14,35,13.90
2020,05,05,14,36,13.90
2020,05,05,14,37,13.90
2020,05,05,14,38,13.90
2020,05,05,14,39,13.90
2020,05,05,14,40,13.90
2020,05,05,14,41,14.00
2020,05,05,14,42,14.00
2020,05,05,14,43,14.10
2020,05,05,14,44,14.10
2020,05,05,14,45,14.20
2020,05,05,14,46,14.20
2020,05,05,14,47,14.20
2020,05,05,14,48,14.20
2020,05,05,14,49,14.20
2020,05,05,14,50,14.30
2020,05,05,14,51,14.30
2020,05,05,14,52,14.30
2020,05,05,14,53,14.30
2020,05,05,14,54,14.40
2020,05,05,14,55,14.30
2020,05,05,14,56,14.30
2020,05,05,14,57,14.30
2020,05,05,14,58,14.40
2020,05,05,14,59,14.50
2020,05,05,15,00,14.60
2020,05,05,15,01,14.70
2020,05,05,15,02,14.80
2020,05,05,15,03,14.80
2020,05,05,15,04,14.80
2020,05,05,15,05,14.80
2020,05,05,15,06,14.80
2020,05,05,15,07,14.80
2020,05,05,15,08,14.80
2020,05,05,15,09,14.70
2020,05,05,15,10,14.70
2020,05,05,15,11,14.70
2020,05,05,15,12,14.70
2020,05,05,15,13,14.60
2020,05,05,15,14,14.50
2020,05,05,15,15,14.50
2020,05,05,15,16,14.50
2020,05,05,15,17,14.50
2020,05,05,15,18,14.40
2020,05,05,15,19,14.50
2020,05,05,15,20,14.50
2020,05,05,15,21,14.50
2020,05,05,15,22,14.60
2020,05,05,15,23,14.60
2020,05,05,15,24,14.60
2020,05,05,15,25,14.60
2020,05,05,15,26,14.60
2020,05,05,15,27,14.60
2020,05,05,15,28,14.60
2020,05,05,15,29,14.60
2020,05,05,15,30,14.60
2020,05,05,15,31,14.60
2020,05,05,15,32,14.60
2020,05,05,15,33,14.60
2020,05,05,15,34,14.70
2020,05,05,15,35,14.70
2020,05,05,15,36,14.70
2020,05,05,15,37,14.70
2020,05,05,15,38,14.70
2020,05,05,15,39,14.80
2020,05,05,15,40,14.80
2020,05,05,15,41,14.80
2020,05,05,15,42,14.80
2020,05,05,15,43,14.70
2020,05,05,15,44,14.70
2020,05,05,15,45,14.70
2020,05,05,15,46,14.80
2020,05,05,15,47,14.80
2020,05,05,15,48,14.90
2020,05,05,15,49,15.00
2020,05,05,15,50,15.00
2020,05,05,15,51,15.00
2020,05,05,15,52,14.90
2020,05,05,15,53,14.80
2020,05,05,15,54,14.80
2020,05,05,15,55,14.80
2020,05,05,15,56,14.80
2020,05,05,15,57,14.70
2020,05,05,15,58,14.70
2020,05,05,15,59,14.70
2020,05,05,16,00,14.70
2020,05,05,16,01,14.70
2020,05,05,16,02,14.70
2020,05,05,16,03,14.70
2020,05,05,16,04,14.70
2020,05,05,16,05,14.90
2020,05,05,16,06,15.20
2020,05,05,16,07,15.20
2020,05,05,16,08,15.20
2020,05,05,16,09,15.20
2020,05,05,16,10,15.20
2020,05,05,16,11,15.30
2020,05,05,16,12,15.30
2020,05,05,16,13,15.30
2020,05,05,16,14,15.30
2020,05,05,16,15,15.40
2020,05,05,16,16,15.40
2020,05,05,16,17,15.50
2020,05,05,16,18,15.50
2020,05,05,16,19,15.50
2020,05,05,16,20,15.40
2020,05,05,16,21,15.40
2020,05,05,16,22,15.30
2020,05,05,16,23,15.30
2020,05,05,16,24,15.30
2020,05,05,16,25,15.40
2020,05,05,16,26,15.40
2020,05,05,16,27,15.50
2020,05,05,16,28,15.50
2020,05,05,16,29,15.60
2020,05,05,16,30,15.60
2020,05,05,16,31,15.50
2020,05,05,16,32,15.40
2020,05,05,16,33,15.30
2020,05,05,16,34,15.30
2020,05,05,16,35,15.30
2020,05,05,16,36,15.30
2020,05,05,16,37,15.30
2020,05,05,16,38,15.30
2020,05,05,16,39,15.40
2020,05,05,16,40,15.40
2020,05,05,16,41,15.50
2020,05,05,16,42,15.60
2020,05,05,16,43,15.60
2020,05,05,16,44,15.60
2020,05,05,16,45,15.60
2020,05,05,16,46,15.70
2020,05,05,16,47,15.70
2020,05,05,16,48,15.70
2020,05,05,16,49,15.70
2020,05,05,16,50,15.70
2020,05,05,16,51,15.70
2020,05,05,16,52,15.70
2020,05,05,16,53,15.70
2020,05,05,16,54,15.70
2020,05,05,16,55,15.60
2020,05,05,16,56,15.60
2020,05,05,16,57,15.60
2020,05,05,16,58,15.70
2020,05,05,16,59,15.80
2020,05,05,17,00,15.80
2020,05,05,17,01,15.80
2020,05,05,17,02,15.90
2020,05,05,17,03,15.90
2020,05,05,17,04,15.80
2020,05,05,17,05,15.80
2020,05,05,17,06,15.80
2020,05,05,17,07,15.80
2020,05,05,17,08,15.80
2020,05,05,17,09,15.80
2020,05,05,17,10,15.80
2020,05,05,17,11,15.80
2020,05,05,17,12,15.80
2020,05,05,17,13,15.80
2020,05,05,17,14,15.80
2020,05,05,17,15,15.70
2020,05,05,17,16,15.70
2020,05,05,17,17,15.60
2020,05,05,17,18,15.60
2020,05,05,17,19,15.50
2020,05,05,17,20,15.60
2020,05,05,17,21,15.60
2020,05,05,17,22,15.60
2020,05,05,17,23,15.70
2020,05,05,17,24,15.70
2020,05,05,17,25,15.70
2020,05,05,17,26,15.70
2020,05,05,17,27,15.60
2020,05,05,17,28,15.60
2020,05,05,17,29,15.60
2020,05,05,17,30,15.60
2020,05,05,17,31,15.60
2020,05,05,17,32,15.60
2020,05,05,17,33,15.70
2020,05,05,17,34,15.70
2020,05,05,17,35,15.70
2020,05,05,17,36,15.80
2020,05,05,17,37,15.80
2020,05,05,17,38,15.90
2020,05,05,17,39,15.90
2020,05,05,17,40,15.90
2020,05,05,17,41,15.90
2020,05,05,17,42,15.90